Погода в Кутереме

Россия / Республика Башкортостан     55°59′33″N   54°31′19″E
темп.,
°C
ветер,
м/с
пор.,
м/с
влажн.,
%
обл.,
%
осадки,
мм/ч
давл.,
гПа
погр.,
м
16 мая, пн
пн1623:00+10ю227975 0.2 100113
02:00+10ююв1187100 0.4 100129
05:00+10в118585 0.5 99911
08:00+10вюв3585100 0.1 998190
11:00+12ююз3482100 0.3 997560
14:00+9ююз3591100 1.3 998295
17:00+12зюз4578100 1.5 998729
20:00+10зсз5883100 0.0 998694
17 мая, вт
вт1723:00+7зюз339245 0.0 99957
02:00+7юз229432 0.0 99930
05:00+6зюз23925 0.0 99938
08:00+10юз35815 0.0 1000240
11:00+14юз35645 0.1 1000874
14:00+16юз345385 0.8 9991544
17:00+12зюз4682100 3.4 999300
20:00+11зюз4883100 2.6 1000531
18 мая, ср
ср1823:00+7юз410946 2.8 1001300
02:00+5ююз369665 0.0 1001143
05:00+5ююв33945 0.0 100158
08:00+8ю46845 0.0 1000318
11:00+12юз466871 0.9 10001057
14:00+13юз566285 2.4 9991416
17:00+12з567016 4.4 9991165
20:00+10з477892 0.3 1000453
19 мая, чт
чт1923:00+5з479591 0.3 1001316
02:00+5зюз4693100 0.2 1001831
05:00+5зсз6995100 0.8 1002724
08:00+5зсз698991 0.1 1004678
11:00+8зсз6768100 0.2 10051366
14:00+9з5665100 0.3 10061275
17:00+9зсз5562100 0.5 10071326
20:00+8зсз357093 0.1 1007346
20 мая, пт
пт2023:00+4зюз11796 0.1 100710
02:00+3юз22828 0.0 100712
05:00+2з1188100 0.0 100712
08:00+6зсз227825 0.0 1007291
11:00+9з336363 0.2 10071165
14:00+11зсз4453100 0.3 10061675
17:00+10сз5557100 0.3 10051255
20:00+8ссз476796 0.0 1005450